Theta_e
354 356 356 356 358 358 358 359 359 359 359 359 358 358 358 358 357 358 360 359 360 360 361 361 362 362 360 361 362 362 362 360 360 359 357 355 354 353 353 351 350 349 350 350 348 348 348 347 348 348 349 346 345 345 344 347 348 345 346 344 342 344 342 338 334 334 342 341 340 339 344 345 343 346 345 345 347 347 346 349 350 346 346 347 346
354 355 356 356 356 357 357 357 358 358 357 357 358 357 357 358 359 359 358 359 360 359 361 361 362 362 361 362 363 363 362 362 359 358 356 354 354 353 352 351 350 350 350 349 349 348 348 348 347 347 349 346 345 344 344 343 344 342 344 342 341 343 343 339 337 335 335 343 339 343 342 344 341 348 343 342 343 346 345 348 348 347 347 346 345
353 356 356 356 357 357 357 357 357 358 356 356 356 355 357 358 359 358 357 357 359 359 360 360 362 363 361 362 363 362 362 362 360 358 356 355 354 352 351 351 350 349 349 348 348 349 347 347 346 347 346 344 345 344 344 344 344 343 343 344 343 342 345 343 340 337 336 337 343 340 341 343 339 342 345 344 346 347 345 345 344 347 348 347 344
352 355 355 355 356 357 357 357 356 355 354 355 355 355 355 357 358 357 356 356 357 359 360 361 362 362 361 362 362 362 362 361 360 359 357 356 355 354 352 351 351 350 349 349 348 348 346 346 345 346 346 344 344 344 344 345 345 345 344 347 346 344 347 345 344 340 339 335 343 339 341 341 341 344 347 346 344 346 345 346 348 347 347 346 346
351 352 353 352 354 355 355 355 355 355 354 354 355 355 355 355 357 356 356 355 357 358 359 361 361 361 359 360 361 361 361 361 360 358 358 357 356 355 354 352 352 351 350 350 348 349 347 346 346 346 346 344 345 344 344 344 344 344 343 345 345 345 345 345 344 343 340 338 339 344 345 343 343 345 345 342 343 345 347 346 346 346 346 344 342
350 351 352 351 353 354 355 355 354 354 354 354 354 355 355 355 356 356 356 356 357 357 358 359 359 360 360 360 361 361 361 361 360 359 357 356 356 355 354 353 352 352 351 351 350 350 348 348 347 347 346 344 344 345 346 345 345 344 343 344 344 345 345 346 345 344 342 339 340 340 344 339 342 342 344 344 341 340 343 346 346 346 345 343 340
351 350 350 350 353 354 354 355 355 354 356 355 355 355 355 355 355 355 356 356 356 356 357 358 359 359 360 360 360 361 361 360 360 360 358 357 356 355 353 353 352 352 351 350 350 349 349 348 348 348 347 346 345 345 347 346 344 344 344 345 345 345 344 344 344 343 342 340 340 341 340 342 342 339 343 345 344 343 340 339 337 344 344 342 341
351 351 351 351 353 353 355 356 357 357 357 358 357 356 356 356 357 357 357 356 355 356 356 357 358 359 359 360 361 361 361 360 360 360 359 357 355 354 353 352 351 351 351 350 349 348 348 348 347 347 347 347 347 347 348 346 346 344 345 345 345 344 342 342 343 341 341 340 338 338 340 339 341 342 344 342 340 340 339 337 334 337 341 343 341
351 350 351 352 354 356 357 357 358 359 358 358 357 357 357 357 358 358 358 357 356 356 357 357 358 358 359 359 360 360 359 359 359 359 358 357 356 354 353 352 351 350 350 349 348 348 348 347 346 346 348 344 343 344 344 341 346 344 346 346 345 344 343 342 342 341 340 340 339 340 339 339 340 339 338 337 335 336 342 339 337 339 340 338 342
352 350 351 354 357 357 358 358 358 359 358 358 358 358 357 358 357 358 358 357 358 358 359 358 358 357 357 358 359 359 358 359 346 334 339 356 356 354 353 352 352 350 350 348 347 347 346 346 346 342 340 341 341 339 336 336 337 342 347 347 345 344 343 342 341 341 340 338 337 338 337 337 338 340 338 339 340 341 339 339 336 337 338 336 339
350 350 351 354 356 358 357 358 359 358 358 359 359 359 358 359 359 359 359 359 358 359 358 358 357 357 357 357 357 357 357 355 333 330 332 335 352 355 353 352 352 351 349 349 348 347 347 347 347 345 342 340 343 337 336 334 335 335 336 340 341 346 344 341 341 341 339 338 339 339 337 336 338 340 340 339 339 339 338 339 336 335 333 331 328
349 352 354 356 357 357 356 358 358 357 358 358 359 359 359 359 358 359 359 359 359 359 358 358 358 357 357 357 356 357 357 338 329 328 329 329 336 354 354 353 351 350 350 349 349 348 347 346 346 347 347 346 345 345 340 335 332 332 332 333 334 334 336 343 343 341 342 340 339 339 339 338 340 341 339 338 338 337 338 337 335 333 332 332 332
351 353 356 357 358 358 359 358 357 358 358 358 359 359 359 359 359 359 358 359 359 359 358 357 358 358 357 357 356 356 357 335 328 326 327 327 328 340 354 353 351 350 350 350 349 349 349 347 346 346 347 339 342 346 347 345 334 329 331 332 332 330 329 330 333 345 345 342 340 340 340 340 341 342 341 340 340 335 335 333 334 334 333 332 332
351 353 356 357 358 358 358 357 357 358 358 359 359 359 358 358 358 358 358 359 359 358 358 358 358 358 358 357 357 357 357 334 326 324 324 324 326 333 353 353 352 351 351 351 350 350 350 349 347 346 347 346 346 346 347 348 348 344 341 341 341 338 330 328 327 328 337 342 342 339 342 345 341 343 343 340 337 335 334 333 334 333 331 332 336
353 355 356 357 358 358 358 358 358 359 359 359 358 358 357 358 358 358 357 357 358 358 357 357 358 358 358 357 357 356 356 330 323 322 321 321 323 327 351 353 352 352 352 352 351 351 351 350 350 349 349 347 346 346 347 347 347 347 346 344 343 344 344 342 339 339 340 339 341 343 343 345 345 342 340 340 339 338 337 335 335 336 336 337 335
351 356 356 356 357 358 358 358 358 359 359 358 358 357 358 358 358 359 359 358 359 358 359 358 357 358 358 358 356 356 356 327 322 321 320 319 321 338 349 352 352 352 352 352 352 352 352 351 350 349 349 348 340 332 339 348 347 346 345 346 346 346 346 345 336 338 345 345 344 343 344 345 337 342 342 340 339 338 338 339 337 335 333 330 327
354 355 354 355 356 357 357 357 358 358 359 358 358 357 357 358 359 360 358 358 357 356 357 357 358 358 358 358 357 356 357 334 320 318 318 317 323 344 348 351 352 351 351 352 352 352 351 351 351 349 349 349 336 326 329 337 346 345 345 345 345 344 343 347 330 328 327 325 324 326 326 324 324 324 324 325 335 337 337 332 330 331 329 325 324
353 354 354 356 357 358 358 358 358 358 358 357 357 357 358 359 359 360 358 356 355 356 357 358 358 359 357 357 357 356 357 337 316 316 316 315 326 345 348 350 350 350 351 352 353 352 351 344 347 350 349 350 326 323 325 335 344 345 345 344 342 341 342 343 341 336 321 322 323 323 324 324 324 321 321 320 322 332 337 330 331 329 326 325 320
352 353 354 356 358 359 358 359 359 357 358 358 358 358 358 359 359 360 358 358 357 359 358 357 358 359 358 357 342 351 357 338 315 316 315 314 328 348 349 350 349 349 350 350 352 352 352 344 337 342 345 341 320 321 321 331 344 346 345 344 340 339 341 343 340 337 336 337 336 336 335 330 336 335 333 319 322 332 337 334 331 328 324 323 321
355 356 355 357 357 357 356 359 358 357 358 359 359 359 360 359 359 359 358 358 357 358 357 357 356 356 358 357 357 355 355 356 330 314 314 313 319 347 351 349 348 349 350 350 349 349 349 350 340 325 326 322 317 316 317 321 341 346 346 343 340 339 343 341 341 340 339 338 339 338 338 338 337 338 338 334 332 335 335 334 332 329 325 323 321
358 358 358 355 354 357 358 358 358 359 360 359 358 359 359 358 358 358 357 357 357 356 357 356 355 356 356 358 357 357 357 357 336 312 312 312 315 328 351 350 351 350 350 349 350 349 348 348 349 326 319 317 314 313 313 315 327 346 346 344 343 344 339 341 339 337 339 338 337 335 335 336 335 334 333 332 330 332 331 330 329 328 325 322 318
358 359 358 357 356 357 357 358 360 359 360 361 360 359 360 360 359 359 358 358 358 357 357 356 356 356 357 358 358 358 351 340 348 315 314 312 314 319 345 352 351 352 350 350 350 349 348 347 347 329 316 315 314 311 311 313 320 344 345 325 317 323 341 341 340 337 336 335 333 332 332 332 330 331 330 330 329 330 329 328 327 326 324 322 321
360 359 360 358 358 358 359 360 360 359 360 361 359 359 360 359 360 361 360 359 358 356 357 357 356 355 357 357 358 359 360 352 327 326 313 312 311 315 325 340 332 352 351 350 348 349 349 347 345 320 314 312 310 309 310 312 318 335 313 312 316 323 334 339 337 336 334 333 332 331 331 331 330 329 329 329 328 329 327 327 326 326 326 325 324
360 359 359 358 358 357 358 360 360 361 361 361 360 361 360 360 360 360 360 358 357 356 355 356 356 354 354 354 355 356 358 358 329 320 321 312 312 313 317 324 326 346 352 351 352 350 348 347 339 314 310 306 307 309 310 313 329 311 309 314 318 325 337 337 335 335 332 330 330 331 331 331 330 328 328 327 325 331 328 327 327 326 327 326 326
358 357 356 357 359 359 360 361 361 362 362 361 360 359 359 360 359 360 359 357 356 355 355 355 355 354 354 354 355 356 357 358 346 326 317 313 313 312 315 319 321 324 347 351 351 349 333 322 314 309 310 308 308 309 310 314 313 309 312 316 326 335 337 335 334 333 330 329 329 330 330 331 330 329 330 331 332 331 330 326 327 327 328 327 326
358 357 357 358 357 358 359 359 362 362 362 361 360 361 359 359 358 359 358 356 356 355 354 354 354 354 353 354 355 357 358 357 348 334 321 316 316 314 316 318 321 322 334 345 331 324 317 315 312 311 310 312 319 324 327 325 313 314 315 323 335 334 334 333 333 331 330 329 329 330 329 329 327 330 332 331 328 325 326 326 325 324 324 322 321
358 358 359 356 358 359 358 358 359 361 362 360 360 360 359 359 359 358 357 355 355 355 355 354 353 353 352 353 354 355 355 355 351 341 334 331 329 325 321 324 320 321 336 334 322 327 321 320 319 315 316 315 322 321 321 315 318 322 328 333 335 334 333 333 332 331 331 330 330 329 328 326 329 329 327 326 325 327 328 326 324 323 323 321 318
354 356 357 358 358 358 358 355 355 356 358 359 357 358 359 360 359 358 357 357 356 355 355 354 353 354 353 353 355 355 354 353 351 345 338 337 336 334 331 331 331 335 337 333 332 327 324 313 313 319 320 324 325 324 322 325 328 328 330 331 332 332 332 331 333 334 334 334 331 330 326 327 325 324 324 324 324 325 327 325 323 322 320 319 316
360 357 355 354 354 356 355 356 354 355 357 360 361 360 360 360 362 361 363 364 361 358 357 356 356 357 356 356 357 357 355 352 351 334 343 328 334 335 332 333 334 338 329 321 327 324 322 323 323 322 324 324 323 322 323 325 325 327 328 329 329 329 329 328 329 330 332 331 329 326 323 323 323 324 323 322 325 325 327 326 324 321 320 317 313
353 352 353 355 356 357 353 352 353 353 354 355 358 361 326 313 335 352 354 324 313 309 316 343 350 353 357 359 360 358 357 356 332 319 316 314 315 316 319 319 320 329 317 315 321 323 324 324 324 325 325 325 323 323 323 323 323 323 324 321 326 328 328 328 330 330 331 329 327 323 323 322 322 323 322 321 326 325 325 320 321 320 316 313 313
346 346 346 345 343 350 351 353 353 354 355 356 357 356 357 345 305 309 318 321 317 311 311 310 309 312 334 349 350 332 331 329 313 311 310 309 309 309 310 311 312 308 309 321 325 326 325 324 325 325 325 326 324 324 324 323 323 323 322 322 326 327 326 328 329 327 328 326 324 323 323 322 322 322 321 322 323 323 320 318 319 318 314 313 312
344 343 344 344 343 345 346 345 347 347 347 347 348 349 348 351 351 323 311 313 310 305 304 306 309 314 314 320 331 352 329 313 307 308 307 307 307 307 306 306 304 306 309 316 326 325 326 325 325 325 326 325 325 325 325 324 324 324 323 322 325 326 327 328 327 328 327 325 323 322 323 322 322 322 322 321 321 321 318 316 314 314 313 312 311
341 341 341 341 340 340 340 340 341 343 343 342 343 344 345 344 344 344 339 318 313 309 304 304 304 304 308 310 310 315 321 311 306 306 306 305 304 303 303 303 304 305 310 323 327 326 326 326 325 325 325 325 325 325 325 325 325 326 326 325 325 325 328 330 326 329 327 325 324 323 323 322 322 321 321 323 320 319 316 314 314 313 312 311 310
338 338 338 338 338 339 340 341 343 342 342 342 340 342 343 341 339 339 338 339 339 327 309 303 303 303 303 302 304 308 312 309 305 306 304 304 303 303 304 308 304 306 316 328 327 326 326 325 325 325 326 326 325 325 325 326 326 327 326 326 327 328 328 329 327 328 325 324 324 323 323 322 322 322 321 321 319 317 315 313 314 312 311 310 309
338 336 336 336 337 338 340 341 340 340 340 339 339 339 339 339 340 337 335 335 333 333 332 333 316 306 313 308 303 300 303 306 305 305 304 304 304 302 304 311 312 319 326 330 329 328 326 325 325 325 326 325 324 324 324 325 326 326 326 326 327 328 327 326 326 326 325 325 324 324 325 324 323 323 321 318 315 313 314 313 313 312 310 309 309
337 337 336 336 337 337 338 339 340 339 338 339 340 339 339 339 336 335 333 334 331 328 326 321 317 309 302 299 294 298 304 304 300 302 302 302 301 305 316 318 322 324 325 326 327 327 327 326 325 326 326 325 325 325 326 327 328 327 327 327 326 327 327 326 325 326 326 326 325 324 322 324 323 322 320 316 315 314 313 312 312 310 310 309 309
336 335 335 335 336 336 336 338 337 336 331 333 335 336 335 335 335 335 335 331 327 325 321 317 319 321 313 313 308 300 296 300 300 298 300 301 305 319 324 324 324 324 323 324 324 325 325 325 326 325 325 326 326 327 327 327 327 328 324 329 328 327 326 327 326 326 326 325 326 326 324 324 321 318 315 315 313 313 312 311 310 308 308 307 306
334 335 336 336 335 335 336 335 334 331 335 334 334 334 333 334 335 335 331 327 324 323 320 318 312 316 314 314 318 316 310 300 298 298 301 305 316 325 325 324 324 324 323 324 324 324 324 325 325 325 325 327 327 328 328 328 327 327 326 327 327 327 321 324 323 327 327 326 325 324 321 319 317 315 315 313 313 311 310 309 309 308 308 307 306
333 323 322 325 328 335 335 335 335 335 334 335 335 333 333 333 334 335 333 331 326 323 320 319 318 315 314 315 318 320 320 321 321 319 323 324 324 325 325 324 324 324 323 323 324 324 324 324 325 326 326 327 327 327 327 326 326 325 324 324 324 323 322 324 324 326 324 322 320 319 317 316 316 315 314 313 312 311 310 309 308 308 307 307 307
335 335 330 327 332 332 333 334 334 334 334 335 334 334 333 332 331 331 332 331 328 326 325 324 321 319 321 322 321 323 322 321 321 321 321 322 323 324 324 323 323 323 322 323 323 323 323 323 324 325 326 325 325 325 325 324 324 322 322 322 322 322 322 322 322 321 319 318 317 316 316 315 315 314 314 312 312 311 310 309 310 308 308 307 307
336 335 334 329 330 336 335 335 333 333 332 332 333 333 332 331 330 328 327 327 326 325 324 323 321 321 319 314 310 313 321 321 321 321 321 321 322 323 323 324 323 322 322 323 323 323 322 322 324 324 324 323 323 323 323 322 321 321 321 320 321 320 320 320 319 318 318 317 317 316 315 315 314 313 311 311 309 310 310 309 309 308 308 308 307
337 336 336 335 334 336 335 335 335 333 333 333 334 333 332 332 331 329 326 323 321 321 320 319 318 317 309 303 303 308 320 321 321 321 321 322 322 322 322 323 324 323 323 323 323 323 323 323 323 322 321 321 321 321 321 321 320 320 319 319 319 318 318 317 318 317 317 316 316 315 315 314 313 312 312 309 311 310 310 309 309 308 308 308 307
337 336 336 335 335 334 334 335 336 336 334 333 333 331 331 332 331 329 327 325 324 323 323 320 319 319 316 308 310 311 322 323 323 323 323 322 321 321 322 323 324 325 326 325 325 324 323 323 323 322 321 321 321 320 320 320 320 319 319 318 318 317 317 316 316 317 316 316 316 315 314 314 312 311 311 311 310 311 309 309 308 308 307 307 306
337 336 336 336 335 334 334 335 334 334 333 331 332 332 333 334 332 330 328 326 324 323 323 322 321 320 320 319 320 323 323 323 324 324 324 323 323 324 324 325 325 325 324 324 324 324 323 323 322 321 322 321 321 322 321 321 321 320 319 319 317 316 316 316 316 316 315 314 314 314 313 312 311 311 310 309 311 309 309 309 308 307 306 306 306
337 336 335 335 336 335 334 334 333 333 331 332 334 333 333 333 333 332 330 327 324 323 324 323 324 323 322 323 323 323 322 323 322 322 323 323 322 323 324 324 324 324 324 323 323 323 323 322 321 320 319 319 320 321 322 322 322 322 320 319 318 316 317 317 317 317 316 315 314 313 312 312 311 311 311 311 310 309 307 308 307 307 305 305 304
333 334 333 333 333 332 333 334 333 334 333 333 333 333 332 332 332 331 330 329 326 325 323 324 327 325 324 324 322 321 321 322 322 322 321 322 322 321 322 322 324 324 324 323 322 322 322 322 320 320 319 319 320 321 321 322 322 322 322 321 319 318 319 319 319 318 317 317 315 313 312 311 311 311 310 311 309 308 308 308 307 306 305 304 304
331 331 329 330 329 330 329 330 331 331 332 331 331 331 329 328 328 327 326 325 325 324 325 326 326 322 320 321 322 323 323 322 322 322 322 322 321 321 321 322 322 323 322 322 322 322 322 321 321 320 320 319 320 321 321 321 322 322 322 322 322 322 322 321 321 320 318 318 316 314 312 311 311 311 309 308 308 307 306 306 305 305 305 303 303
330 329 329 329 329 328 328 329 329 329 331 330 330 329 327 326 326 325 324 323 323 323 324 325 325 322 321 322 323 322 324 323 323 323 324 323 322 322 321 321 321 321 322 322 322 321 321 321 321 321 321 320 321 320 321 320 321 320 320 321 321 321 318 312 321 320 319 318 316 314 313 311 310 309 308 308 308 306 305 304 304 303 303 303 303
327 326 327 327 326 326 326 325 325 325 326 327 327 327 327 327 326 325 323 325 325 324 325 325 326 324 324 324 324 324 324 323 325 324 323 322 322 322 322 322 322 322 322 322 322 322 322 322 322 322 322 322 322 321 321 320 319 319 319 319 315 301 298 303 312 318 310 316 314 313 312 310 309 308 307 306 305 306 304 304 303 303 303 304 304
321 321 320 321 324 324 326 326 325 325 324 325 325 324 324 325 324 322 318 318 319 321 321 323 324 326 324 324 323 324 325 324 324 324 324 324 323 323 323 322 322 322 323 322 323 323 323 323 323 323 323 323 323 323 321 319 319 318 318 318 297 293 294 297 301 300 309 313 312 311 310 309 308 307 306 305 306 305 304 303 303 303 303 304 305
319 318 318 318 318 321 323 323 320 320 322 323 323 323 322 322 321 320 319 318 318 319 318 319 320 322 324 324 324 324 324 326 325 325 325 325 325 325 324 324 323 323 324 324 324 324 325 324 323 323 324 323 323 322 322 320 320 319 308 298 292 292 293 298 307 296 300 305 312 310 308 307 306 305 305 305 305 305 303 302 303 303 303 304 305
Wind_Speed
19 18 16 17 17 17 17 16 17 15 15 15 14 14 14 13 13 12 10 11 11 12 12 12 12 12 13 12 12 11 11 10 9 9 9 9 9 9 9 10 10 8 8 8 8 7 8 8 8 8 7 7 6 6 6 5 5 5 5 5 6 6 6 6 7 6 4 3 3 3 3 4 5 5 4 4 5 5 5 4 3 3 3 3 3
18 17 17 17 20 19 19 17 17 16 17 16 16 14 14 13 13 12 12 12 12 13 13 12 12 12 13 13 12 12 11 11 11 10 10 10 10 8 9 10 10 10 8 9 9 7 8 8 8 8 7 8 8 8 7 7 7 6 6 6 6 6 6 6 6 6 6 4 4 3 4 5 5 5 5 5 5 4 4 3 2 3 3 3 3
20 17 18 17 20 18 18 17 17 18 19 17 18 17 15 14 13 13 13 13 12 13 13 13 13 13 13 12 12 12 12 12 11 11 11 12 12 11 10 11 11 11 10 10 10 9 9 9 9 8 6 8 8 8 8 8 8 8 8 7 7 7 6 7 6 6 7 6 3 4 4 5 6 5 5 4 4 3 3 4 4 4 3 3 3
18 17 17 18 19 18 18 17 19 20 20 18 19 19 16 15 14 15 15 13 13 13 13 14 13 13 13 13 13 12 13 12 12 12 12 12 12 12 11 11 11 12 11 11 11 10 10 10 10 9 9 9 9 8 8 8 8 7 8 7 7 7 6 6 7 7 6 7 4 5 4 4 5 5 3 3 4 4 4 4 4 4 4 3 3
18 19 20 21 20 19 20 19 19 21 21 18 20 19 18 16 15 16 15 15 15 13 13 13 13 13 13 14 14 14 14 13 13 13 12 12 12 12 12 12 12 12 12 11 12 11 11 11 10 11 10 10 10 9 9 10 9 9 9 8 7 7 6 6 7 7 7 7 6 5 4 4 4 4 4 5 5 5 5 5 4 4 4 3 3
19 19 19 20 19 21 21 20 21 22 21 20 20 20 18 17 16 15 17 17 16 15 14 13 13 14 15 15 15 14 14 13 14 14 14 13 12 12 12 12 12 12 12 12 12 11 11 12 11 11 12 12 11 10 10 12 10 9 10 9 8 7 7 7 7 7 8 8 7 6 5 6 5 6 6 6 6 6 5 5 5 5 3 2 2
18 19 20 21 19 20 20 20 20 20 19 19 18 18 19 18 18 17 17 18 17 16 16 16 14 15 15 15 15 14 14 14 13 13 13 13 13 13 13 12 12 11 12 12 12 12 12 12 12 12 13 12 12 11 10 10 9 11 10 9 8 8 8 7 7 8 8 8 8 8 7 6 6 7 6 6 5 5 5 4 5 4 2 2 1
18 18 18 19 18 19 19 19 18 18 17 17 17 18 18 18 17 16 16 18 18 18 17 17 15 14 15 15 15 13 13 13 13 13 13 13 12 13 13 12 12 12 12 12 12 12 13 13 13 13 13 13 13 11 10 9 9 10 10 9 9 9 9 8 8 8 9 9 9 8 8 7 7 5 3 4 5 5 5 5 6 5 2 1 2
18 18 17 18 17 17 16 16 15 16 17 16 17 17 17 17 16 16 16 17 16 18 17 17 16 16 16 15 15 14 13 13 12 13 13 14 13 13 14 13 13 12 12 12 12 12 12 12 13 13 13 14 15 12 11 10 9 10 9 9 10 9 9 8 8 8 8 8 8 8 8 7 7 7 7 7 8 8 5 5 5 4 3 3 2
16 18 19 17 15 14 14 14 15 16 16 16 17 17 17 17 17 17 16 16 15 15 16 16 17 16 16 16 15 13 13 12 14 18 16 13 14 12 12 12 13 12 12 12 12 13 13 13 12 15 14 15 15 15 15 15 14 11 9 10 10 9 9 9 9 9 9 9 9 9 9 9 8 8 9 8 7 6 5 5 5 3 2 4 5
18 19 20 17 14 13 14 15 14 16 17 16 16 17 18 16 16 16 15 16 16 15 15 17 17 16 17 16 16 14 13 12 18 18 19 18 14 13 13 13 13 13 13 12 12 12 12 13 11 12 14 13 14 17 17 17 16 16 14 10 10 10 10 10 10 10 9 9 9 9 9 10 9 9 8 8 7 6 6 5 5 4 4 4 6
19 19 17 14 13 15 15 15 16 17 16 17 17 17 16 16 16 16 16 16 16 15 16 16 15 16 15 16 17 15 14 15 18 20 20 20 17 13 12 12 12 13 13 13 11 11 11 11 11 9 10 13 13 13 15 16 16 16 16 14 13 14 12 11 10 9 10 9 9 9 9 9 9 8 7 7 6 5 4 4 5 5 5 5 5
20 18 13 14 15 15 14 15 16 16 17 17 16 15 16 16 16 16 17 16 15 16 16 17 16 16 16 17 17 16 15 16 19 21 21 21 21 17 12 13 13 13 13 13 12 11 10 10 10 9 8 14 12 12 11 13 15 16 15 15 14 14 14 14 12 11 9 10 10 11 10 9 8 7 6 5 4 4 4 4 4 3 3 5 6
16 15 15 15 15 15 16 17 17 17 16 15 15 16 17 18 18 17 16 15 15 16 17 18 17 17 16 16 15 15 16 16 21 21 22 22 21 18 13 13 13 13 13 13 12 12 12 11 10 10 9 11 12 12 11 11 10 11 11 11 11 13 13 14 14 13 10 10 11 12 10 8 8 5 6 6 6 5 4 4 3 3 5 5 5
14 12 13 13 13 14 16 17 17 16 16 16 16 17 18 17 17 16 16 17 17 17 17 18 17 16 16 16 14 15 15 16 21 22 22 22 21 19 14 12 12 12 12 12 12 12 12 12 12 11 10 11 11 13 12 11 10 9 10 11 12 11 11 12 12 11 10 10 11 12 10 7 4 6 6 5 5 4 3 3 4 4 3 4 7
15 11 12 13 15 16 17 16 15 15 16 16 17 18 18 18 18 16 15 15 15 15 15 16 17 17 17 17 17 17 16 17 20 22 22 21 21 14 14 14 13 12 12 12 12 11 12 12 11 11 11 11 13 16 13 10 10 10 10 10 9 9 10 6 5 6 6 7 9 9 7 4 6 7 7 6 5 4 4 4 3 4 5 6 7
13 13 15 15 16 15 16 16 15 15 15 16 17 18 17 17 15 14 15 15 16 17 19 17 16 17 18 17 18 16 15 16 21 22 21 22 17 13 14 13 13 13 12 12 12 12 12 12 12 11 11 11 13 17 15 12 9 10 10 10 8 9 10 4 4 5 6 6 7 8 9 9 8 6 6 7 6 6 6 6 6 5 5 7 8
14 14 15 15 15 14 14 15 16 16 16 18 19 18 17 14 15 14 16 16 17 18 17 18 17 16 18 19 18 17 16 15 22 22 23 23 20 15 12 14 18 17 13 12 11 11 13 15 14 12 12 11 15 17 16 13 10 10 10 9 10 10 8 7 4 4 7 9 9 9 9 8 7 6 7 7 5 6 7 6 5 6 7 7 8
14 15 15 14 14 14 15 15 14 16 17 18 17 18 17 16 15 14 16 15 16 14 15 18 16 15 17 19 18 19 17 15 23 22 24 23 20 13 13 14 18 18 16 14 13 11 10 13 17 14 12 11 17 17 16 14 11 10 10 9 10 11 9 8 7 6 6 6 6 5 5 5 5 5 6 7 8 8 7 6 5 5 5 4 3
13 11 10 12 13 14 14 14 16 16 16 15 15 16 14 14 15 15 15 15 16 16 17 17 20 19 18 18 15 19 20 13 18 25 25 24 26 16 13 15 19 19 18 16 15 14 14 12 13 17 14 13 17 17 17 17 12 10 10 11 10 10 8 9 9 7 7 7 6 7 7 6 7 7 6 6 6 9 7 6 4 3 4 4 3
7 9 10 13 15 15 13 15 16 14 14 14 15 14 14 15 16 16 17 16 17 19 19 20 19 19 20 18 19 20 17 17 15 25 25 26 28 22 16 17 17 17 18 16 14 15 12 13 11 14 16 16 17 18 18 18 14 10 10 8 9 5 7 8 9 8 6 6 6 7 7 7 7 6 6 6 7 8 7 5 4 4 4 3 3
8 9 11 12 13 13 14 13 13 12 12 12 13 14 13 14 14 16 15 15 18 19 20 19 17 19 17 18 18 21 18 22 12 24 26 28 28 29 17 17 17 16 17 16 13 14 13 11 11 13 18 16 17 18 18 17 16 8 9 8 12 13 8 6 8 8 7 7 7 8 7 7 7 7 6 7 6 6 6 5 6 5 4 2 2
9 10 10 11 11 12 12 13 11 11 11 12 14 14 13 14 15 14 15 15 17 20 20 18 19 20 17 14 15 16 15 15 19 17 25 27 28 28 28 19 20 15 13 15 17 14 11 13 10 15 18 17 17 17 16 17 14 9 12 13 13 12 9 7 8 9 9 9 8 7 7 6 6 7 7 6 5 5 5 5 6 5 3 2 2
8 9 9 11 11 12 12 13 13 12 13 13 13 12 12 12 12 12 14 15 13 16 17 17 15 18 15 14 15 14 15 13 18 24 22 28 27 29 29 24 21 16 14 11 10 11 12 10 10 17 18 18 17 16 15 14 11 13 15 15 15 12 8 9 9 9 10 9 7 7 7 7 7 6 5 5 5 6 5 5 4 4 4 3 3
9 9 10 10 10 10 10 11 12 12 12 14 14 13 15 14 13 15 15 16 18 19 18 16 16 19 17 16 14 13 13 10 9 19 27 26 28 29 29 28 22 21 15 11 10 10 11 14 16 18 18 18 16 14 12 13 12 15 15 16 13 8 8 8 10 10 8 8 7 7 7 7 6 5 5 5 5 4 4 4 4 4 3 3 3
8 9 9 9 10 11 11 12 12 12 13 13 13 13 14 14 14 13 14 17 17 17 16 15 13 16 17 19 17 14 10 11 2 6 13 22 24 29 30 29 25 22 20 13 14 15 17 18 20 19 16 13 11 8 8 8 12 15 16 15 10 9 10 10 10 9 8 8 7 8 7 6 6 6 6 5 5 5 5 5 5 5 5 4 4
5 5 7 7 8 9 11 10 9 11 12 12 12 12 12 13 13 12 14 17 17 15 14 15 15 14 13 16 13 9 9 10 10 12 11 11 11 14 16 17 21 18 15 10 14 14 18 17 14 15 12 16 13 11 10 12 10 9 8 9 10 10 9 9 9 9 8 8 8 8 6 6 6 7 6 6 6 5 5 4 4 4 4 3 2
3 3 4 4 5 7 8 9 10 10 11 12 12 12 12 13 13 14 14 15 15 14 15 16 16 16 17 18 14 14 11 12 11 12 13 12 12 13 14 13 13 12 13 13 13 14 12 16 16 11 12 11 10 10 9 10 10 11 11 10 10 9 8 6 6 7 7 7 7 6 6 7 7 7 7 7 6 5 4 4 3 2 2 2 3
4 4 3 3 3 3 5 6 8 9 8 10 10 10 11 13 13 12 13 8 8 11 13 15 16 17 17 16 12 11 11 12 16 19 18 21 19 15 14 15 14 15 14 15 13 11 13 13 12 13 11 11 10 10 10 10 10 10 11 11 9 7 7 7 8 8 8 7 7 7 7 7 7 7 7 6 6 5 4 4 3 2 2 2 4
7 6 5 4 3 2 2 3 4 5 6 7 7 5 14 12 8 3 1 7 5 7 5 3 6 7 9 12 14 14 14 16 20 19 22 25 26 27 26 23 20 15 17 22 18 13 12 14 14 14 11 9 11 11 11 11 11 10 10 9 10 11 9 9 8 9 8 7 7 7 8 8 8 8 7 7 5 5 4 4 4 3 3 4 5
6 6 6 5 4 4 3 3 3 2 3 2 4 3 3 5 10 9 6 3 1 7 6 10 10 11 10 11 15 22 23 20 12 19 21 23 25 26 26 26 26 25 26 19 13 14 13 14 14 13 14 14 12 10 12 12 11 11 10 10 10 11 9 9 9 10 9 7 7 7 8 9 8 7 7 7 6 5 5 5 4 4 4 4 5
7 6 6 5 6 6 5 5 4 5 4 4 4 3 3 1 1 4 6 3 3 5 10 13 15 17 19 18 14 13 16 15 19 21 23 25 26 26 22 22 24 28 28 26 17 14 13 12 11 11 13 13 13 11 11 11 12 12 11 11 11 10 9 9 10 10 8 8 8 8 8 8 8 7 7 7 6 5 6 6 5 4 4 4 5
7 6 5 5 6 6 6 5 6 5 6 5 4 3 4 3 2 2 5 1 3 9 12 14 16 18 21 22 24 23 20 14 21 24 26 26 24 23 25 27 28 30 27 16 13 14 13 14 15 11 11 12 12 10 11 13 13 13 12 10 10 10 9 9 10 9 7 8 8 8 8 7 7 7 7 6 6 6 5 5 4 4 4 4 5
7 5 4 5 5 5 5 5 5 4 3 3 3 3 3 4 4 3 2 5 8 6 11 14 15 17 18 19 21 22 24 23 25 29 29 30 30 30 30 26 31 31 26 17 16 14 12 11 12 12 11 10 11 12 12 13 14 12 10 9 9 9 11 11 10 7 7 7 7 7 7 7 7 7 7 6 6 5 5 5 4 4 4 4 4
7 9 10 7 6 6 5 5 5 5 5 5 4 5 5 4 3 3 1 3 4 6 8 8 7 9 12 12 13 14 17 19 25 30 33 33 31 27 22 17 15 15 15 14 15 15 15 14 13 14 13 12 11 13 14 14 12 10 10 9 9 10 11 9 8 8 8 7 7 7 7 7 7 7 7 7 6 6 5 4 4 4 4 4 4
6 5 6 7 6 6 6 5 5 6 6 5 4 4 3 3 3 3 2 2 4 6 7 9 10 12 14 14 13 9 7 5 12 21 28 30 31 32 21 16 16 13 10 8 6 7 10 12 13 11 10 10 10 11 10 10 10 10 9 9 9 9 8 8 8 7 7 7 7 7 7 6 6 7 7 6 7 6 5 4 4 4 4 3 3
7 6 5 5 5 5 6 6 5 6 6 6 5 5 5 5 5 3 3 4 4 4 6 8 6 5 8 8 10 11 10 12 13 11 23 33 35 29 21 20 17 14 12 10 9 7 8 8 10 11 10 10 10 10 11 11 9 9 9 8 8 8 8 8 8 7 7 7 6 7 7 7 7 7 7 7 6 5 5 4 4 4 3 1 1
8 6 5 5 6 6 5 5 6 6 7 7 6 6 6 6 6 5 5 5 5 5 8 8 8 9 11 7 3 5 13 20 18 11 5 7 24 24 21 18 18 16 13 10 9 9 8 7 7 9 10 9 10 10 8 8 8 8 7 7 7 6 8 8 8 7 6 6 7 7 7 7 7 7 7 6 6 5 5 5 4 4 4 4 4
8 9 8 8 7 6 6 6 6 7 7 7 6 6 6 5 5 6 5 5 7 8 9 10 8 7 4 6 2 8 15 13 11 6 6 10 10 14 12 13 14 15 14 12 8 7 7 7 6 6 8 7 6 6 7 7 7 7 7 7 7 7 8 7 7 7 7 7 7 7 7 6 6 6 6 6 6 5 5 5 5 4 3 3 3
8 8 7 5 7 7 7 7 7 7 6 6 5 5 5 5 4 5 5 6 7 6 6 6 7 6 3 1 2 11 15 13 12 11 12 11 10 11 11 10 11 12 13 12 12 11 9 9 7 6 6 5 6 6 6 7 7 7 7 7 8 8 8 7 8 8 8 7 7 7 7 6 6 6 6 6 5 5 5 5 5 4 3 3 3
8 8 8 7 6 8 8 8 7 7 6 5 4 4 4 5 5 5 6 6 6 7 7 7 7 6 7 4 4 15 13 10 9 10 7 6 6 7 9 9 9 10 9 9 8 8 8 7 6 7 8 7 6 6 6 6 7 7 7 7 8 8 8 8 8 8 8 7 7 7 7 6 6 6 7 6 5 4 5 5 5 4 4 4 3
7 7 7 7 7 6 6 7 7 7 6 5 4 4 5 5 6 7 7 6 6 6 6 7 8 8 10 12 7 17 14 9 9 9 8 6 6 6 6 7 7 7 8 8 9 8 6 6 6 7 7 7 7 6 6 7 7 8 8 8 8 9 9 8 8 8 8 7 7 7 7 7 6 6 5 4 5 5 5 5 5 4 4 3 3
8 8 8 8 8 8 6 6 6 5 5 5 5 5 5 5 6 7 7 6 5 5 6 6 7 7 9 10 12 12 10 9 7 7 7 7 5 6 7 7 7 6 6 6 5 6 7 7 7 7 7 7 7 8 8 7 8 8 8 8 9 9 9 8 8 8 7 7 7 7 7 6 6 6 6 5 5 5 5 5 5 5 4 3 4
6 6 5 6 7 7 7 7 6 6 6 5 5 5 5 6 6 6 6 6 5 5 5 5 6 6 7 8 8 8 9 9 8 8 9 8 7 7 6 6 6 6 6 5 6 5 6 6 6 5 6 6 6 6 7 7 8 9 9 9 9 9 9 9 8 8 8 7 7 7 7 7 7 6 5 5 5 5 6 6 5 5 4 3 3
6 6 6 6 6 7 7 7 6 5 3 3 4 4 4 5 5 5 5 5 5 5 5 5 5 5 6 6 6 7 7 7 7 7 7 7 7 7 7 6 6 6 6 5 5 5 6 6 7 7 7 6 5 6 6 7 7 8 9 9 10 9 9 9 9 8 8 8 7 8 8 8 7 7 6 6 6 6 6 6 6 4 4 3 4
8 8 8 8 7 8 7 7 6 5 5 4 3 4 5 5 5 5 5 5 4 4 4 4 4 4 4 5 6 6 6 6 7 6 6 6 7 6 5 5 6 6 6 6 5 5 6 6 7 7 7 7 7 6 6 6 6 7 8 8 9 9 9 8 8 8 8 8 7 7 7 7 7 7 6 5 6 6 5 5 4 4 3 3 4
9 8 8 9 9 8 8 7 6 5 4 4 4 5 5 5 5 6 7 6 4 3 3 3 3 3 3 4 4 5 6 6 6 7 7 6 5 5 5 5 6 6 6 6 6 6 6 6 6 7 7 7 7 7 7 6 6 6 6 6 6 7 6 6 6 6 6 6 6 6 6 6 6 5 6 6 5 5 5 5 5 4 4 3 3
9 9 9 9 9 9 8 6 5 4 4 5 5 5 5 5 5 6 5 5 4 3 2 2 3 2 3 3 3 3 4 5 5 6 7 6 5 5 5 5 5 5 6 6 6 6 6 6 7 7 7 8 8 7 7 6 6 6 6 5 5 5 6 7 5 4 4 4 5 5 5 6 6 6 6 7 6 5 5 5 5 4 4 4 4
9 9 9 9 10 9 9 8 8 7 7 6 5 5 5 5 5 4 4 3 4 4 4 3 2 2 2 2 2 2 3 4 5 5 5 5 5 5 5 5 5 5 5 5 6 6 6 6 6 7 7 7 7 7 7 7 7 6 6 5 6 12 12 9 5 5 6 5 4 5 5 5 6 6 6 6 5 4 4 4 4 4 4 4 4
9 9 9 9 9 10 9 8 9 9 8 7 6 7 7 7 6 4 5 5 4 3 3 2 2 2 1 1 1 2 2 3 3 4 5 5 5 5 5 5 5 5 5 5 5 5 5 5 6 5 6 6 6 6 7 7 7 7 7 6 12 13 12 11 8 11 8 5 6 5 6 6 6 6 6 6 5 5 4 5 5 5 4 4 5
9 9 9 10 10 9 8 9 9 8 8 9 9 8 6 5 5 4 5 5 5 4 3 2 2 2 1 1 1 1 2 3 3 4 4 4 5 5 5 5 5 5 5 5 5 5 5 6 6 6 6 6 6 6 7 7 7 7 10 14 15 13 13 11 8 10 9 6 6 6 6 7 7 6 6 5 5 4 4 4 5 5 5 5 5
Wind_Direction
193 194 192 198 196 195 197 197 200 202 205 203 203 203 202 202 202 203 196 198 196 197 200 202 202 201 201 199 199 197 196 197 193 191 193 196 200 199 195 189 197 204 201 196 200 200 205 209 209 208 206 209 212 213 211 201 200 206 205 206 210 199 204 212 229 241 204 193 226 237 178 213 209 205 207 193 178 187 212 214 196 225 230 244 235
195 192 192 195 197 197 199 200 201 203 205 205 203 203 203 200 200 196 197 196 195 199 200 202 203 202 202 200 198 197 194 194 192 190 194 198 201 198 200 192 198 206 199 201 198 201 199 204 208 204 198 210 213 214 215 212 206 210 203 206 212 207 200 213 225 239 254 175 209 202 210 202 230 196 216 219 214 191 207 198 207 231 240 265 273
195 188 188 190 194 195 196 199 197 200 203 204 205 204 203 202 198 200 203 203 199 202 202 203 201 200 203 203 197 197 195 196 195 192 195 197 200 201 201 198 200 204 202 201 199 196 200 203 207 200 191 206 212 217 217 216 215 217 210 203 213 215 198 208 222 231 240 245 206 221 204 195 224 219 211 218 219 218 219 220 218 203 220 239 262
193 188 188 193 192 191 193 197 198 201 204 206 206 206 205 202 198 200 201 204 201 200 202 201 200 198 202 204 202 199 196 196 195 195 195 197 201 201 199 201 204 207 207 201 198 198 203 203 208 202 194 204 210 212 212 212 213 213 214 206 209 215 204 200 217 236 238 253 201 228 212 209 209 220 196 209 220 212 223 228 219 219 223 219 230
194 192 191 194 193 195 198 197 200 203 205 206 207 206 206 204 200 200 200 204 204 198 200 200 200 200 204 207 205 203 199 195 195 198 198 199 201 202 202 203 207 208 208 204 200 198 201 207 204 198 196 206 210 211 207 209 214 214 216 210 208 211 210 205 212 219 233 237 239 210 205 210 217 208 200 213 210 212 209 217 216 227 224 232 231
195 192 190 193 194 196 198 198 202 203 202 204 205 204 203 203 201 198 199 202 202 202 198 199 201 202 205 207 207 205 200 195 195 197 198 197 199 204 204 206 208 208 209 207 203 202 205 206 203 198 201 206 214 209 206 208 209 215 217 215 209 209 211 208 209 215 225 235 234 235 202 217 209 216 210 220 232 228 218 210 213 216 226 233 218
192 191 190 193 194 196 195 198 199 199 198 200 201 202 202 202 201 200 198 201 200 202 202 201 201 203 206 207 208 205 200 197 196 196 197 194 196 201 207 208 209 209 210 210 209 207 208 207 204 201 204 208 212 211 205 205 208 216 216 217 209 209 212 212 206 215 221 227 229 233 241 224 226 239 216 213 235 246 244 232 240 204 203 259 276
188 188 190 194 195 195 194 195 195 194 195 196 198 200 201 202 202 200 198 199 202 203 203 201 201 202 205 207 209 205 200 198 198 197 194 193 194 200 204 206 207 209 211 211 212 211 210 210 210 207 207 208 209 213 205 202 205 213 211 209 206 206 215 212 209 217 221 224 228 229 223 235 234 230 207 194 228 228 226 238 250 250 246 224 268
184 185 189 193 194 189 188 191 190 188 190 191 193 198 200 200 199 199 198 200 202 205 204 202 201 202 205 207 207 205 203 202 200 196 195 195 198 201 203 205 205 207 210 212 211 212 212 212 214 214 207 206 205 208 207 202 205 210 209 203 204 205 211 214 212 214 220 223 227 226 233 231 226 229 220 214 218 230 200 210 241 257 285 287 229
182 192 195 197 191 187 186 189 189 187 188 192 194 195 198 198 198 198 197 198 200 201 203 203 203 201 202 206 206 205 205 205 199 193 193 194 196 200 200 203 205 207 207 210 212 210 212 214 215 212 206 204 206 208 213 212 213 219 210 196 201 205 208 212 213 215 219 223 227 227 231 228 226 216 227 222 214 214 203 197 233 246 261 275 272
187 195 204 199 185 185 189 193 187 188 193 194 194 194 197 198 200 200 200 199 201 199 201 204 204 204 204 205 206 207 206 206 192 191 196 197 195 196 196 199 202 205 208 207 209 207 211 215 220 208 207 205 208 209 214 215 215 221 226 213 205 205 211 214 219 217 217 228 231 229 236 241 237 231 225 237 225 213 217 207 236 253 268 279 287
194 201 204 190 184 187 192 188 189 193 191 194 193 194 197 200 202 200 198 198 198 201 202 204 206 208 209 211 211 209 210 201 187 191 195 198 200 200 199 201 201 204 208 210 209 208 209 210 211 209 203 208 210 211 214 217 216 218 220 222 216 217 222 220 220 220 219 227 231 232 236 236 242 242 240 231 213 199 220 242 242 255 266 271 276
196 199 186 181 188 188 185 186 191 192 194 193 192 192 195 199 201 200 202 201 199 201 204 205 209 209 210 211 213 212 216 192 187 189 195 198 200 203 208 205 203 205 206 207 207 206 207 206 206 204 208 194 202 213 214 213 211 214 219 221 222 219 223 229 233 237 235 237 239 244 242 244 239 229 208 188 157 182 186 210 220 234 277 287 289
196 195 186 187 188 187 186 189 193 194 190 188 189 192 196 203 204 204 203 201 202 204 205 207 209 208 209 210 212 215 219 189 185 188 194 196 196 199 213 207 208 207 205 203 204 206 203 202 202 204 205 194 203 208 211 213 207 206 214 220 225 224 223 227 233 242 249 249 247 249 250 232 244 213 154 159 179 193 196 212 218 246 247 256 281
199 195 188 191 187 187 189 191 193 189 186 186 189 194 198 202 202 202 202 203 203 202 203 207 210 211 210 210 213 215 220 188 184 189 193 193 193 196 210 213 210 209 205 205 205 205 204 204 206 207 198 192 196 198 203 205 205 208 209 213 220 228 225 222 224 227 227 235 244 251 259 250 206 137 147 163 193 207 205 234 261 272 279 284 274
201 187 187 189 191 191 191 192 190 188 187 188 192 197 199 199 200 197 201 206 210 207 208 211 211 210 209 210 214 218 219 187 184 188 191 191 187 194 207 213 213 209 208 209 208 208 207 204 205 206 199 196 189 186 196 197 201 208 214 220 220 224 228 216 218 212 234 234 241 250 247 185 143 158 163 169 180 199 209 210 221 240 251 266 278
196 190 195 192 192 189 191 191 190 189 189 191 197 199 199 200 199 194 200 204 206 211 215 211 212 213 211 212 214 217 221 185 184 185 187 185 180 199 204 211 218 214 212 211 209 209 205 203 205 204 200 202 177 179 190 191 205 207 214 217 222 230 234 184 106 141 127 107 101 101 115 128 148 152 161 178 216 218 215 226 236 231 245 268 276
197 194 196 190 182 181 183 185 186 187 189 196 198 200 201 201 200 195 202 205 209 212 215 218 212 211 211 212 211 213 219 183 181 182 185 180 183 194 199 210 222 222 219 213 211 207 207 199 201 204 199 198 166 179 183 186 202 205 212 214 219 226 225 215 193 133 120 130 135 141 153 168 179 177 196 196 193 218 213 222 239 256 260 268 280
195 197 197 187 177 184 187 186 185 187 194 197 196 198 198 197 196 196 205 208 212 213 215 223 217 212 214 214 205 210 219 194 177 180 182 179 186 195 197 208 221 223 223 219 215 214 208 198 198 202 202 181 165 178 180 184 201 205 205 209 215 221 220 201 199 173 168 171 171 170 171 166 179 188 174 169 182 215 224 238 257 249 255 257 264
192 186 182 177 180 190 194 191 195 197 197 195 197 200 197 196 197 198 204 210 215 217 221 222 227 225 222 219 212 211 216 206 176 179 179 178 185 191 199 204 219 221 221 220 218 222 221 213 193 199 196 169 169 177 181 186 198 201 202 210 212 214 210 202 197 192 185 201 194 193 202 185 197 202 189 173 193 211 224 226 235 227 226 232 233
159 172 172 186 194 195 193 193 193 195 192 194 198 201 199 201 200 201 206 209 213 218 216 222 222 224 224 220 227 222 214 209 176 179 178 179 185 188 204 203 212 213 217 216 215 217 212 214 213 185 185 174 173 180 180 190 196 201 192 198 205 182 157 190 189 195 195 194 186 188 186 182 182 184 179 181 193 200 209 216 216 205 213 219 247
176 179 185 193 195 193 196 199 195 196 194 189 190 200 205 203 203 204 205 205 209 214 218 220 220 223 218 218 223 226 216 206 177 181 178 181 183 192 200 204 203 206 208 217 208 216 213 205 211 178 179 175 180 179 182 185 193 195 191 159 116 131 158 183 177 182 187 179 175 178 178 180 181 194 201 205 208 195 202 191 196 197 202 228 255
171 179 184 190 193 193 194 190 187 195 195 191 195 202 198 201 203 204 202 205 208 213 216 217 221 223 217 211 215 216 213 199 174 175 181 182 186 192 201 205 189 196 199 209 215 207 206 202 196 164 175 175 178 180 179 183 182 184 141 138 146 142 149 178 178 176 177 178 176 177 177 182 187 196 200 201 196 187 188 181 176 189 205 223 224
172 179 184 190 193 197 197 193 193 197 194 188 197 197 199 200 205 209 213 215 219 222 225 225 227 231 231 225 224 215 207 193 178 176 181 185 187 193 200 202 187 198 205 203 183 189 196 182 171 158 171 174 178 177 177 171 178 155 146 146 147 158 170 170 173 175 176 174 174 174 183 193 203 196 190 190 177 166 179 167 180 195 209 222 212
175 187 190 191 190 193 191 192 194 195 194 192 198 201 203 199 204 212 213 217 221 225 227 226 225 231 232 230 230 226 225 213 176 180 178 185 191 194 197 199 195 191 196 198 174 177 166 153 144 160 170 175 170 159 163 175 155 147 148 148 152 170 170 169 170 170 171 175 180 184 192 193 192 183 162 150 132 144 166 183 194 209 216 225 240
180 188 190 189 191 193 194 196 196 195 195 198 201 202 203 202 209 207 211 219 222 224 229 227 226 228 231 233 232 228 214 223 171 179 189 189 194 195 195 197 194 190 190 183 170 136 134 145 157 162 159 150 140 151 159 161 154 149 149 155 168 177 177 171 171 169 176 181 183 189 188 171 166 153 140 145 163 180 184 189 192 200 204 210 224
184 184 188 191 189 193 195 199 197 198 199 205 207 207 208 212 212 212 214 223 225 226 229 230 231 229 227 234 230 208 202 201 190 182 187 190 200 199 196 202 195 183 182 133 129 145 155 154 155 157 154 155 144 130 121 128 134 144 154 169 180 179 173 175 171 173 181 186 184 185 164 153 143 141 158 170 185 186 186 188 206 198 192 196 241
175 170 184 190 195 201 204 202 200 206 204 206 211 212 212 216 219 217 215 218 222 223 224 224 223 224 231 231 225 222 207 206 194 183 187 182 181 187 195 192 183 181 174 161 158 142 137 135 129 127 131 134 132 135 142 155 159 163 169 175 177 175 164 139 154 181 186 188 179 151 143 146 161 170 171 186 192 184 183 199 210 194 200 197 252
93 102 117 158 181 188 211 205 210 214 212 208 211 216 220 219 220 219 221 223 241 243 239 235 232 234 235 230 213 205 213 207 209 203 196 189 183 180 186 193 185 183 169 149 139 135 133 139 142 141 147 143 143 146 153 159 162 164 166 173 176 163 164 176 182 186 181 170 159 161 161 169 172 177 184 187 191 181 172 176 172 191 190 228 269
70 68 61 64 63 107 172 202 202 210 216 216 211 184 62 68 57 20 18 18 52 107 122 267 276 292 269 247 232 223 217 217 215 183 181 184 185 178 180 179 182 167 146 145 142 142 149 149 152 150 147 144 152 157 161 161 158 161 165 165 171 179 178 184 186 185 180 172 165 169 169 176 179 183 191 199 185 180 164 181 169 175 203 240 260
75 70 65 60 54 64 75 70 71 68 55 66 69 100 140 80 102 116 133 168 322 305 264 247 248 249 237 261 249 235 236 238 191 177 179 180 184 187 183 171 160 146 143 136 141 147 157 160 159 153 148 151 154 160 163 162 164 163 164 168 178 176 179 184 188 184 182 172 171 176 176 184 187 186 197 206 204 179 162 180 174 178 218 249 262
70 70 73 76 63 59 63 68 83 90 94 90 105 116 102 128 67 157 161 182 263 264 269 271 263 250 248 244 252 257 238 214 174 177 178 181 184 186 172 158 146 145 152 147 148 157 160 154 153 153 153 153 160 161 164 164 165 166 164 167 175 175 182 184 180 182 180 172 177 179 184 188 192 191 203 210 205 189 177 175 187 199 220 237 252
65 64 65 65 68 70 72 75 76 87 95 100 108 118 125 128 118 16 359 99 246 265 272 255 251 256 249 244 234 234 240 202 185 179 178 178 174 165 157 155 155 152 145 146 151 156 168 163 155 154 156 156 156 159 164 167 169 173 173 169 169 173 183 179 173 183 177 179 180 184 186 188 191 196 206 206 199 204 184 191 187 201 221 243 246
67 68 70 74 80 81 89 100 106 110 113 109 100 84 79 84 97 87 27 330 322 259 223 239 259 274 275 269 266 255 235 199 188 183 177 175 173 167 161 161 156 156 151 150 150 158 155 159 154 153 156 152 156 162 168 171 175 172 162 166 162 162 175 173 176 174 176 176 190 186 186 190 187 201 209 205 202 201 193 199 191 199 217 234 257
81 78 79 82 85 88 92 92 96 95 92 97 95 101 101 96 83 70 358 332 319 305 321 325 345 325 306 306 312 309 289 248 198 188 182 175 165 151 132 129 137 148 149 153 160 162 160 157 160 161 156 160 164 168 174 174 169 163 161 157 155 156 166 165 170 173 182 181 190 192 186 191 193 205 206 194 190 199 205 200 199 203 217 239 255
75 80 81 82 86 90 92 90 91 95 99 100 94 85 77 77 77 62 15 344 338 336 342 359 353 27 42 32 16 347 297 279 265 212 175 159 144 136 138 146 143 143 124 112 128 146 145 154 155 155 149 150 151 163 169 166 161 154 156 153 149 152 156 160 167 172 177 185 185 184 173 183 187 193 196 196 198 204 199 199 201 195 206 239 270
66 70 77 86 90 94 89 88 82 86 92 104 102 89 74 66 61 54 52 46 11 4 25 26 45 28 35 26 9 358 343 248 180 213 178 155 153 146 145 146 140 131 125 124 130 137 149 158 154 148 145 144 154 164 168 164 154 147 142 143 145 148 159 168 167 169 170 180 175 170 179 181 179 187 197 195 197 198 197 187 190 185 214 183 293
54 55 70 76 91 90 97 96 93 91 86 86 81 74 68 61 62 66 71 69 48 51 74 73 73 69 62 27 329 75 69 58 44 90 283 197 149 140 137 134 132 128 126 123 131 147 153 163 149 144 145 153 159 164 157 141 139 137 131 127 137 144 135 145 143 157 164 175 169 165 171 171 177 186 197 205 198 195 187 184 196 187 185 175 229
68 63 54 56 64 84 85 87 81 82 82 83 80 79 72 68 69 77 84 81 75 71 81 91 83 79 110 236 277 53 64 77 81 330 164 125 51 71 83 108 117 119 119 125 129 138 152 155 147 138 141 144 146 144 137 134 131 127 130 138 141 142 147 157 151 159 166 168 160 162 169 173 182 188 199 206 198 194 187 186 192 202 220 237 251
58 65 63 81 85 74 82 80 80 78 76 81 81 81 89 84 76 63 57 62 63 63 64 79 98 120 157 253 2 70 77 74 54 42 23 34 75 96 106 105 112 119 126 131 147 155 158 162 154 131 120 121 136 137 130 131 125 126 134 144 148 147 150 150 154 158 163 164 165 165 173 178 183 187 196 207 201 186 190 195 197 202 216 243 269
59 60 60 47 51 87 85 84 79 79 76 72 74 84 93 91 75 61 55 53 53 49 40 46 44 27 346 337 86 95 94 93 102 105 94 69 51 74 93 101 104 112 121 132 136 142 145 146 146 142 139 144 139 135 134 127 128 138 144 143 142 142 147 149 154 162 164 165 170 173 180 185 182 190 200 201 186 200 196 203 200 200 203 221 251
56 58 53 57 56 64 75 79 87 89 90 95 95 94 91 90 85 81 76 67 60 44 51 35 27 29 13 14 47 94 103 96 95 100 99 98 96 92 90 97 101 110 127 141 148 145 138 133 137 138 136 136 137 136 131 136 142 144 144 144 146 147 152 155 160 165 169 175 177 183 186 191 188 202 204 189 192 200 200 201 208 206 218 230 249
55 56 57 58 53 50 46 62 76 86 95 96 91 85 85 87 90 99 97 90 82 83 76 59 51 43 44 29 29 39 70 85 90 92 95 102 104 111 113 112 112 119 114 118 125 128 137 141 140 142 145 146 143 143 144 144 145 142 144 146 150 152 157 160 164 169 176 179 181 181 190 181 186 202 199 199 211 200 207 198 202 208 207 228 252
62 62 60 59 62 62 57 59 63 60 64 69 84 87 94 97 97 98 102 104 97 86 80 67 61 67 69 56 45 51 72 78 83 88 93 94 96 96 78 77 87 91 96 112 128 133 136 135 132 131 131 133 131 132 139 144 143 147 148 151 153 158 163 165 171 174 178 182 185 184 191 197 198 204 201 202 204 202 199 197 200 203 216 231 258
36 45 52 57 52 54 54 51 49 54 62 75 76 81 82 86 98 105 107 107 100 97 88 82 82 85 83 75 71 80 83 83 86 90 98 107 114 121 117 100 100 107 121 127 132 143 144 139 141 139 136 133 134 138 138 140 146 150 155 155 158 163 169 171 176 177 180 186 188 193 196 197 201 206 203 196 199 199 202 195 200 188 203 235 250
26 28 31 36 42 46 45 47 43 36 29 34 49 64 62 57 74 76 95 107 109 115 109 105 105 88 81 94 90 92 97 104 108 109 113 120 128 122 109 113 115 125 135 140 147 154 148 146 142 142 139 141 147 146 142 140 143 146 152 160 164 169 174 176 176 176 181 188 195 196 198 200 203 206 198 195 192 198 200 190 197 199 226 237 249
39 40 40 44 47 46 43 36 36 30 24 29 38 46 56 63 59 71 68 62 74 94 110 115 112 72 60 85 110 116 122 124 128 129 133 133 120 120 126 127 131 132 130 142 152 152 143 143 144 141 142 144 145 142 145 146 151 152 151 156 163 159 164 160 159 171 177 187 195 205 196 200 191 179 168 191 191 186 194 204 210 207 219 227 237
33 38 36 35 36 37 32 28 33 35 33 28 33 43 64 65 71 72 82 91 81 81 77 94 96 71 80 96 104 116 122 124 127 132 137 139 127 124 123 126 130 135 141 143 148 147 150 149 149 147 143 146 150 151 148 147 151 150 156 157 164 157 119 121 140 146 159 165 178 188 183 193 192 190 183 186 198 191 197 207 204 207 199 198 206
30 28 29 31 37 35 32 26 25 26 31 27 23 27 31 56 70 67 57 54 90 118 117 112 92 83 81 85 94 104 113 123 125 126 125 124 127 128 129 128 128 134 141 143 145 146 147 150 152 154 151 150 152 151 152 156 154 162 156 164 128 120 133 143 153 140 134 152 163 174 180 188 183 177 175 184 191 197 207 206 203 192 183 187 192
31 30 28 27 29 39 40 37 32 32 33 31 35 33 28 23 23 23 50 57 37 39 82 117 118 90 81 107 118 111 118 114 112 114 119 127 133 135 131 128 131 135 138 139 145 145 148 141 145 149 151 154 155 160 161 163 169 161 169 143 132 145 150 149 132 127 149 171 165 178 180 182 178 180 185 190 192 195 199 197 190 185 186 183 192
36 34 34 34 34 25 35 39 40 32 31 38 39 36 25 29 37 25 46 48 30 1 2 9 57 103 168 146 131 128 107 102 109 117 122 129 135 139 140 138 136 134 130 135 139 147 152 156 160 159 164 163 166 166 172 169 173 170 141 136 149 153 151 150 151 164 168 159 171 172 179 178 183 186 190 191 196 196 191 186 187 186 184 184 191